Location: Dittelbrunn
(50.0738°N, 10.2196°E)
Time: 22:21:46
(UTC+00:00)

Spot 2 Rocket - Pass Details

Date: 18 September 2020
Orbit: 758 x 771 km, 98.6° (Epoch: 31 October)

Event Time Altitude Azimuth Distance (km) Brightness Sun altitude
Exits shadow 19:48:04 47° 80° (E) 1,001 3.7 -22.5°
Maximum altitude 19:48:24 48° 68° (ENE) 991 3.8 -22.5°
Drops below altitude 10° 19:53:15 10° 355° (N) 2,301 6.4 -23.2°
Sets 19:55:37 0° 350° (N) 3,231 7.4 -23.5°
